Hourly Data Report for October 06, 2017

All times are specified in Local Standard Time (LST). Add 1 hour to adjust for Daylight Saving Time where and when it is observed.

FORT CHIPEWYAN
ALBERTA

58°46'02.000" N
111°07'02.000" W
238.00 m
3072655
71305
YPY

Related Data

No related data is available for this station

Download Data

Hourly Data (October 2017)
Hourly Data Report for October 6, 2017
Temp Definition
°C
Dew Point Temp Definition
°C
Rel Hum Definition
%
Wind Dir Definition
10's deg

Wind Spd Definition
km/h
Visibility Definition
km
Stn Press Definition
kPa
Hmdx Definition


Wind Chill Definition


Weather Definition


TIME
00:00 Legend Double Dagger 6.1 4.9 92 24 8 16.1 96.90     LegendNANA
01:00 Legend Double Dagger 5.7 4.8 94 25 8 16.1 96.82     LegendNANA
02:00 Legend Double Dagger 5.0 4.1 94 23 5 16.1 96.77     LegendNANA
03:00 Legend Double Dagger 4.2 3.9 98 25 8 16.1 96.72     LegendNANA
04:00 Legend Double Dagger 4.4 3.8 96 24 5 16.1 96.67     LegendNANA
05:00 Legend Double Dagger 5.3 4.7 96 24 8 16.1 96.60     LegendNANA
06:00 Legend Double Dagger 4.9 4.2 95 26 5 16.1 96.50     LegendNANA
07:00 Legend Double Dagger 5.0 3.7 91 25 5 16.1 96.42     LegendNANA
08:00 Legend Double Dagger 5.2 3.6 89 23 4 16.1 96.36     LegendNANA
09:00 Legend Double Dagger 6.9 4.4 84 LegendMM 4 16.1 96.25     LegendNANA
10:00 Legend Double Dagger 9.7 3.4 65 23 5 16.1 96.20     LegendNANA
11:00 Legend Double Dagger 10.7 2.1 55 28 13 16.1 96.16     LegendNANA
12:00 Legend Double Dagger 11.1 2.2 54 26 13 16.1 96.07     LegendNANA
13:00 Legend Double Dagger 10.1 3.1 62 27 13 16.1 96.04     LegendNANA
14:00 Legend Double Dagger 9.8 3.1 63 32 13 16.1 96.03     LegendNANA
15:00 Legend Double Dagger 9.5 4.4 70 30 8 16.1 96.06     Rain
16:00 Legend Double Dagger 9.5 5.4 76   0 16.1 96.02     Rain
17:00 Legend Double Dagger 8.4 6.6 88   0 16.1 96.03     Rain
18:00 Legend Double Dagger 7.7 6.8 94 6 8 16.1 96.02     Rain
19:00 Legend Double Dagger 6.2 6.1 99 8 4 16.1 96.00     LegendNANA
20:00 Legend Double Dagger 6.4 6.3 99 LegendMM 4 16.1 95.97     Rain
21:00 Legend Double Dagger 6.2 5.8 97 26 4 16.1 95.95     LegendNANA
22:00 Legend Double Dagger 6.1 6.0 99   0 16.1 95.92     Rain
23:00 Legend Double Dagger 5.2 5.2 100 23 4 16.1 95.91     LegendNANA

Notes on Data Quality.

Legend

  • E = Estimated
  • M = Missing
  • NA = Not Available
  • ‡ = Partner data that is not subject to review by the National Climate Archives
Date modified: